Meteo Giornale » Osservazioni meteo Repubblica Ceca » Caslav

ore: 11:00 - Osservazioni Meteo Caslav
Lat. 49° 56' N Lon. 15° 23' E Alt. 242 metri s.l.m.

molto_nuvoloso Europe/Prague

12 °C

Molto Nuvoloso

Temp. 24 Ore

9 °C

16 °C

Ovest

20.3 Km/h

Dew point 6 °C

Umidità 66 %

Visibilità  10 Km

Il sole sorge alle ore 05:08

Il sole tramonta alle ore 20:40

Data e Ora Cielo e Fenomeni T °C DP °C Um. % Pres. hPa Vis. km Vento km/h
Oggi h: 11:00 molto_nuvoloso Molto Nuvoloso 12 6 66 1007 10 O 20.3
Oggi h: 10:30 molto_nuvoloso Molto Nuvoloso 13 5 58 1006 10 O 20.3
Oggi h: 10:00 molto_nuvoloso Molto Nuvoloso 12 6 66 1006 10 O/SO 18.5
Oggi h: 09:30 molto_nuvoloso Molto Nuvoloso 12 7 71 1006 10 O/SO 20.3
Oggi h: 09:00 molto_nuvoloso Molto Nuvoloso 12 7 71 1006 10 O/SO 20.3
Oggi h: 08:30 molto_nuvoloso Molto Nuvoloso 11 7 76 1006 10 O/SO 13
Oggi h: 07:30 molto_nuvoloso Molto Nuvoloso 10 7 81 1006 10 SO 13
Oggi h: 07:00 coperto Coperto 10 7 81 1006 10 SO 9.3
Oggi h: 06:30 coperto Coperto 10 8 87 1006 10 O 7.4
Oggi h: 06:00 coperto_pioggia Pioggia Debole 10 7 81 1006 10 O 11.1
Oggi h: 05:30 coperto_pioggia Pioggia Debole 9 8 93 1006 10 N 5.5
Oggi h: 05:00 coperto_pioggia Pioggia Debole 10 8 87 1006 10 O/SO 9.3
Oggi h: 04:30 coperto_pioggia Pioggia Debole 10 8 87 1005 10 O 14.8
Oggi h: 03:30 sereno Sereno 9 8 93 1004 10 N 5.5
Oggi h: 03:00 molto_nuvoloso Molto Nuvoloso 9 8 93 1005 10 N 5.5
Oggi h: 02:30 molto_nuvoloso Molto Nuvoloso 10 9 93 1005 10 N 5.5
Oggi h: 02:00 molto_nuvoloso Molto Nuvoloso 10 9 93 1005 10 N 5.5
Oggi h: 01:30 molto_nuvoloso Molto Nuvoloso 10 9 93 1005 10 N 5.5
Oggi h: 01:00 molto_nuvoloso Molto Nuvoloso 10 9 93 1005 10 S 7.4
Oggi h: 00:30 molto_nuvoloso Molto Nuvoloso 11 10 93 1005 10 S/SO 7.4
Oggi h: 00:00 nuvoloso_temporali Temporale nelle Vicinanze 11 9 87 1005 10 O/NO 9.3
Ieri h: 23:30 nuvoloso_temporali Temporale con Pioggia 11 10 93 1005 10 S/SE 16.7
Ieri h: 23:00 nuvoloso_temporali Temporale con Pioggia 11 9 87 1005 8 S 9.3
Ieri h: 22:30 nuvoloso_temporali Temporale con Pioggia 11 10 93 1005 10 N 3.7
Ieri h: 22:28 nuvoloso_temporali Temporale con Pioggia 11 10 93 1005 10 N 3.7
Ieri h: 21:58 coperto_pioggia Pioggia Debole 12 9 81 1005 10 N 3.7
Ieri h: 21:49 nuvoloso_temporali Temporale con Pioggia 12 9 81 1005 10 N 1.8
Ieri h: 21:46 coperto_temporali Temporale 12 9 81 1005 10 N 3.7
Ieri h: 21:30 nuvoloso_temporali Temporale nelle Vicinanze 12 9 81 1005 10 N 1.8
Ieri h: 21:21 nuvoloso_temporali Temporale nelle Vicinanze 12 9 81 1005 10 N 1.8
Ieri h: 21:00 coperto Coperto 12 9 81 1005 10 N 5.5
Ieri h: 20:30 sereno Sereno 12 9 81 1005 10 SE 11.1
Ieri h: 20:00 sereno Sereno 13 9 76 1005 10 E/SE 13
Ieri h: 19:30 coperto Coperto 13 11 87 1006 10 E 7.4
Ieri h: 19:00 coperto Coperto 13 10 81 1006 10 E 9.3
Ieri h: 18:30 coperto_pioggia Pioggia Debole 13 10 81 1006 10 E 9.3
Ieri h: 18:00 coperto_pioggia Pioggia Debole 14 10 76 1007 10 N 5.5
Ieri h: 17:30 sereno Sereno 14 9 71 1007 10 SE 9.3
Ieri h: 17:00 sereno Sereno 14 9 71 1007 10 E/SE 13
Ieri h: 16:30 molto_nuvoloso Molto Nuvoloso 14 9 71 1007 10 SE 18.5
Ieri h: 16:00 nuvoloso_piovaschi Debole Rovescio di Pioggia 13 9 76 1008 10 E 7.4
Ieri h: 15:30 nuvoloso_piovaschi Debole Rovescio di Pioggia 12 9 81 1008 8 SE 18.5
Ieri h: 14:30 molto_nuvoloso Molto Nuvoloso 16 7 55 1008 10 E/SE 11.1
Ieri h: 14:00 molto_nuvoloso Molto Nuvoloso 15 8 62 1009 10 SE 18.5
Ieri h: 13:30 molto_nuvoloso Molto Nuvoloso 15 9 67 1009 10 E/SE 11.1
Ieri h: 13:00 molto_nuvoloso Rovescio nelle Vicinanze 15 8 62 1009 10 E/SE 9.3
Ieri h: 12:30 coperto_pioggia Pioggia Debole Temporale nelle Vicinanze 14 10 76 1010 10 O/SO 7.4
Ieri h: 12:09 nuvoloso_temporali Temporale con Pioggia 15 9 67 1010 10 NO 11.1
Ieri h: 12:00 nuvoloso_temporali Temporale nelle Vicinanze 15 8 62 1009 10 N 5.5